STARLINK-35288 (65749 NORAD) Tracking and Keplerian Element Data

This shows tracking and keplerian element data for the satellite.

Feedback or suggestion? Click here.




ElementValue
Catalog65749
NameSTARLINK-35288
Epoch Orbit1433
Epoch Day354.13492709
Epoch Year2025
RAAN342.4008
Inclination53.1593
Eccentricity0.0001437
Argument of Perigee104.1934
Mean Anonmoly255.9226
Mean Motion15.30196925
Decay Rate0.00013204
L11 65749U 25216R 25354.13492709 .00013204 00000+0 45717-3 0 9997
L22 65749 53.1593 342.4008 0001437 104.1934 255.9226 15.30196925 14330



Live tracking and technical data element details for STARLINK-35288 (NORAD 65749). STARLINK-35288 can be tracked NOW for your location showing map with azimuth and elevation plus other details from your city location.







IsCatalogInMostPopularTable: catalog: 65749, numindb: 12
Update: records affected: 1



GetName: 65749 STARLINK-35288

Hit Count: updated at: Thu, 21 May 2026 11:19:31 GMT